Weather History for KAKO - August, 2013

Change the Weather History Date:

Wednesday, August 28, 2013

  Actual Average Record
Temperature  
Mean Temperature 77 °F 70 °F  
Max Temperature 94 °F 84 °F 97 °F (2011)
Min Temperature 60 °F 56 °F 43 °F (1964)
Degree Days  
Heating Degree Days 0    
Month to date heating degree days 2  
Cooling Degree Days 12    
Month to date cooling degree days 228  
Growing Degree Days 28 (Base 50)    
Moisture  
Dew Point 45 °F    
Average Humidity 37    
Maximum Humidity 60    
Minimum Humidity 14    
Precipitation  
Precipitation 0.00 in 0.06 in 0.71 in (1991)
Month to date precipitation 2.41 2.13  
Year to date precipitation 11.42 13.32  
Sea Level Pressure  
Sea Level Pressure 29.91 in    
Wind  
Wind Speed 10 mph (SSE)    
Max Wind Speed 17 mph    
Max Gust Speed 24 mph    
Visibility 10 miles    
Events      
T = Trace of Precipitation, MM = Missing Value Source: NWS Daily Summary

Daily Weather History Graph

Daily Weather History Graph

Search for Another Location

Airport or City:

Trip Planner

Search our weather history database for the weather conditions in past years. The results will help you decide how hot, cold, wet, or windy it might be!

Date:

Astronomy

Aug. 28, 2013 Rise Set
Actual Time 6:16 AM MDT 7:30 PM MDT
Civil Twilight 5:48 AM MDT 7:58 PM MDT
Nautical Twilight 5:15 AM MDT 8:31 PM MDT
Astronomical Twilight 4:39 AM MDT 9:06 PM MDT
Moon No Moon Rise 2:10 PM MDT (8/28)
Length of Visible Light 14h 09m
Length of Day
13h 13m
Waning Gibbous, 47% of the Moon is Illuminated
Aug 28
Waning Gibbous
Sep 5
New
Sep 12
First Quarter
Sep 19
Full
Sep 26
Last Quarter

Hourly Weather History & Observations

Time (MDT) Temp. Dew Point Humidity Pressure Visibility Wind Dir Wind Speed Gust Speed Precip Events Conditions
12:53 AM 73.0 °F 46.9 °F 39% 29.87 in 10.0 mi South 10.4 mph 21.9 mph N/A   Clear
1:53 AM 70.0 °F 48.0 °F 46% 29.87 in 10.0 mi SSW 10.4 mph - N/A   Clear
2:53 AM 69.1 °F 48.0 °F 47% 29.87 in 10.0 mi SSW 9.2 mph - N/A   Clear
3:53 AM 64.0 °F 48.0 °F 56% 29.89 in 10.0 mi SW 9.2 mph - N/A   Clear
4:53 AM 63.0 °F 48.0 °F 58% 29.88 in 10.0 mi WSW 8.1 mph - N/A   Clear
5:53 AM 63.0 °F 48.9 °F 60% 29.90 in 10.0 mi WNW 10.4 mph - N/A   Clear
6:53 AM 62.1 °F 48.0 °F 60% 29.91 in 10.0 mi WNW 12.7 mph - N/A   Clear
7:53 AM 66.9 °F 50.0 °F 54% 29.94 in 10.0 mi SW 6.9 mph - N/A   Clear
8:53 AM 79.0 °F 48.9 °F 35% 29.92 in 10.0 mi ENE 6.9 mph - N/A   Clear
9:53 AM 81.0 °F 50.0 °F 34% 29.93 in 10.0 mi South 10.4 mph - N/A   Clear
10:53 AM 87.1 °F 45.0 °F 23% 29.92 in 10.0 mi SSE 13.8 mph 20.7 mph N/A   Clear
11:53 AM 89.1 °F 43.0 °F 20% 29.91 in 10.0 mi SSW 11.5 mph 21.9 mph N/A   Clear
12:53 PM 91.0 °F 43.0 °F 19% 29.89 in 10.0 mi East 9.2 mph - N/A   Clear
1:24 PM 91.4 °F 42.8 °F 18% 30.10 in 10.0 mi SE 11.5 mph - N/A   Clear
1:53 PM 91.0 °F 41.0 °F 17% 29.88 in 10.0 mi South 9.2 mph - N/A   Clear
2:53 PM 91.9 °F 42.1 °F 18% 29.87 in 10.0 mi South 10.4 mph - N/A   Clear
3:53 PM 93.0 °F 42.1 °F 17% 29.87 in 10.0 mi SSE 9.2 mph - N/A   Clear
4:53 PM 91.9 °F 41.0 °F 17% 29.87 in 10.0 mi ESE 5.8 mph 17.3 mph N/A   Clear
5:53 PM 90.0 °F 33.1 °F 13% 29.88 in 10.0 mi East 10.4 mph 17.3 mph N/A   Clear
6:53 PM 84.9 °F 36.0 °F 17% 29.90 in 10.0 mi East 6.9 mph - N/A   Clear
7:53 PM 75.9 °F 39.9 °F 27% 29.93 in 10.0 mi Variable 6.9 mph - N/A   Clear
8:53 PM 73.0 °F 45.0 °F 37% 29.93 in 10.0 mi SE 5.8 mph - N/A   Clear
9:53 PM 73.0 °F 46.0 °F 38% 29.94 in 10.0 mi SE 6.9 mph - N/A   Clear
10:53 PM 73.0 °F 46.9 °F 39% 29.93 in 10.0 mi SSE 10.4 mph - N/A   Clear
11:53 PM 71.1 °F 48.0 °F 44% 29.92 in 10.0 mi South 12.7 mph - N/A   Clear